dewaweb.com alexa rank chart, dewaweb.com alexa rank daily changes

dewaweb.com alexa rank chart, dewaweb.com alexa rank daily changes

dewaweb.com
Actual rank:
112 321

RANK HISTORY

Date Rank Diff
2017/11/22 112 321 +607
2017/11/21 111 714 +991
2017/11/20 110 723 -35
2017/11/19 110 758 -1 327
2017/11/18 112 085 -995
2017/11/17 113 080 -731
2017/11/16 113 811 +150
2017/11/15 113 661 +60
2017/11/14 113 601 +276
2017/11/13 113 325 +219
2017/11/12 113 106 -886
2017/11/11 113 992 -2 577
2017/11/10 116 569 -526
2017/11/09 117 095 -1 206
2017/11/08 118 301 -40
2017/11/07 118 341 -216
2017/11/06 118 557 -494
2017/11/05 119 051 -908
2017/11/04 119 959 -1 435
2017/11/03 121 394 +65
2017/11/02 121 329 -1 353
2017/11/01 122 682 -1 104
2017/10/31 123 786 -540
2017/10/30 124 326 -982
2017/10/29 125 308 -388
2017/10/28 125 696 -275
2017/10/27 125 971 -738
2017/10/26 126 709 +344
2017/10/25 126 365 +110
2017/10/24 126 255 -422
2017/10/23 126 677 -234
2017/10/22 126 911 -1 408
2017/10/21 128 319 -1 172
2017/10/20 129 491 -676
2017/10/19 130 167 +424
2017/10/18 129 743 +3 556
2017/10/17 126 187 +1 238
2017/10/16 124 949 +1 143
2017/10/14 123 806 -84
2017/10/13 123 890 -207
2017/10/12 124 097 +1 380
2017/10/11 122 717 +1 396
2017/10/10 121 321 +1 620
2017/10/09 119 701 +493
2017/10/08 119 208 +268
2017/10/07 118 940 -1 944
2017/10/06 120 884 +597
2017/10/05 120 287 +455
2017/10/04 119 832 +393
2017/10/03 119 439 -971
2017/10/02 120 410 +2 137
2017/10/01 118 273 +949
2017/09/30 117 324 -960
2017/09/29 118 284 +330
2017/09/28 117 954 +565
2017/09/27 117 389 +1 162
2017/09/26 116 227 -27
2017/09/25 116 254 +911
2017/09/24 115 343 +848
2017/09/23 114 495 +547
2017/09/22 113 948

WIDGET FOR YOUR SITE

DOMAINS WITH THE NEAREST RANK

Domain Rank
teenagesex.tv 112 316
assurland.com 112 317
dubaicareers.ae 112 318
onandroid.org 112 319
cqmu.edu.cn 112 320
dewaweb.com 112 321
nachfin.info 112 322
advertolog.com 112 323
wordpresstemporal.com 112 324
aotu.io 112 325
whatvwant.com 112 326

DOMAINS WITH THE NEAREST RANK BY TLD .com

Domain Rank
amateurgfvids.com 112 311
rrky.com 112 312
onlinemediamasters.com 112 314
haowangpu.com 112 315
assurland.com 112 317
dewaweb.com 112 321
advertolog.com 112 323
wordpresstemporal.com 112 324
whatvwant.com 112 326
thewaycloud.com 112 333
solutionwhere.com 112 334